Качергине

Литва     54°55′58″N   23°42′43″E
В апреле 2022 года жителям России запретили посещать сайт meteo.paraplan.net по решению Генеральной прокуратуры. Аудитория сайта уменьшилась в 10 раз. Владельцы сайта не видят смысла в поддержке погодного сервера в таких условиях. Сайт будет закрыт в октябре.
темп.,
°C
ветер,
м/с
пор.,
м/с
влажн.,
%
обл.,
%
осадки,
мм/ч
давл.,
гПа
погр.,
м
25 сентября, вс
вс2500:00+10з3462100 0.0 1015101
03:00+10зсз2369100 0.0 101562
06:00+9ссз2270100 0.0 101563
09:00+10с127152 0.0 1015135
12:00+14зсз236284 0.0 1014862
15:00+15з3452100 0.1 10121419
18:00+14зюз2462100 0.0 1012147
21:00+11зюз236892 0.0 101144
26 сентября, пн
пн2600:00+9ююз227674 0.0 101016
03:00+9ю2279100 0.0 100927
06:00+8ю3484100 0.0 100859
09:00+9ююв367532 0.0 1008173
12:00+15ю46575 0.0 1008797
15:00+17ю455251 0.1 10071481
18:00+15ююв35635 0.1 1006158
21:00+11юв35815 0.1 100681
27 сентября, вт
вт2700:00+9юв38918 0.0 1006128
03:00+11юв388360 0.0 1005218
06:00+9вюв379472 0.0 1005139
09:00+11юв498569 0.0 1005301
12:00+16юв566723 0.0 1005885
15:00+17юв5658100 0.3 10041407
18:00+15вюв4861100 0.0 1003348
21:00+13вюв4968100 0.1 1003377
28 сентября, ср
ср2800:00+12вюв4877100 0.0 1003350
03:00+12в4882100 0.1 1002326
06:00+10в4883100 0.0 1001303
09:00+10в499198 1.2 1000368
12:00+12вюв4881100 0.1 1000608
15:00+12юв3683100 0.5 999419
18:00+9зюз4796100 3.8 1000296
21:00+8ю339799 4.1 100158
29 сентября, чт
чт2900:00+8ююв369484 0.0 1002115
03:00+7ю3892100 0.0 1002150
06:00+8ю4994100 1.2 1002428
09:00+9ю4893100 1.4 1003363
12:00+13ююз687140 0.1 10041084
15:00+15ююз685342 0.1 10051718
18:00+13ююз476042 0.0 1006248
21:00+11ю3665100 0.0 1008136